Terug naar catalogus

DELTA 1 DEB

ActiefLEO
NORAD 18870·DEBRIS·🇺🇸 United States

Gelanceerd Nov 6, 1973 vanaf Vandenberg Space Force Base

Loading…

Volgende Passages (komende 24 uur)

TLE

VersSource: Space-Track

Epoch: Sep 14, 2026, 00:35 UTC

1 18870U 73086HA  26257.02479741  .00000606  00000-0  70234-2 0  9994
2 18870 101.7708 173.2064 0357789 350.7874   8.6722 11.95526281593671

Volg DELTA 1 DEB in realtime met AllMySat

Download on the App Store